QPF
0.03 0.02 0.02 0.01 0.01 0.02 0.02 0.01 0.01 0.01 0.02 0.02 0.02 0.01 0.01 0.01 0.00 0.01 0.01 0.01 0.01 0.01 0.01 0.01 0.01 0.02 0.03 0.02 0.01 0.01 0.00 0.00 0.00 0.00 0.00 0.00 0.00 0.00 0.00 0.00 0.00 0.00 0.00
0.02 0.02 0.01 0.01 0.01 0.01 0.01 0.01 0.01 0.01 0.01 0.01 0.01 0.01 0.01 0.01 0.01 0.01 0.01 0.01 0.01 0.01 0.01 0.01 0.01 0.01 0.01 0.02 0.02 0.01 0.01 0.00 0.00 0.00 0.00 0.00 0.00 0.00 0.00 0.00 0.00 0.00 0.00
0.01 0.01 0.01 0.00 0.00 0.00 0.00 0.00 0.00 0.00 0.00 0.00 0.00 0.00 0.00 0.00 0.01 0.00 0.01 0.01 0.01 0.01 0.01 0.01 0.01 0.01 0.01 0.01 0.02 0.02 0.01 0.01 0.00 0.00 0.00 0.00 0.00 0.00 0.00 0.00 0.00 0.00 0.00
0.00 0.00 0.00 0.00 0.00 0.00 0.00 0.00 0.00 0.00 0.00 0.00 0.00 0.00 0.00 0.00 0.01 0.01 0.01 0.01 0.01 0.01 0.01 0.01 0.01 0.01 0.01 0.01 0.01 0.02 0.02 0.01 0.01 0.01 0.00 0.00 0.00 0.00 0.00 0.00 0.00 0.00 0.00
0.00 0.00 0.00 0.00 0.00 0.00 0.00 0.00 0.00 0.00 0.01 0.01 0.00 0.00 0.00 0.00 0.01 0.01 0.01 0.01 0.01 0.01 0.01 0.01 0.01 0.00 0.00 0.00 0.00 0.01 0.02 0.03 0.02 0.01 0.01 0.00 0.00 0.00 0.00 0.00 0.00 0.00 0.00
0.00 0.00 0.00 0.00 0.00 0.01 0.01 0.00 0.00 0.01 0.01 0.01 0.01 0.01 0.01 0.00 0.01 0.01 0.01 0.01 0.00 0.00 0.00 0.00 0.00 0.00 0.00 0.00 0.00 0.00 0.00 0.02 0.03 0.03 0.02 0.01 0.00 0.00 0.00 0.00 0.01 0.01 0.01
0.00 0.00 0.00 0.00 0.01 0.01 0.01 0.00 0.01 0.01 0.01 0.01 0.01 0.01 0.01 0.01 0.01 0.00 0.00 0.00 0.00 0.00 0.00 0.00 0.00 0.00 0.00 0.00 0.00 0.00 0.00 0.00 0.01 0.02 0.02 0.01 0.01 0.01 0.01 0.01 0.01 0.01 0.01
0.00 0.00 0.00 0.00 0.01 0.00 0.00 0.00 0.00 0.01 0.01 0.01 0.01 0.01 0.01 0.00 0.00 0.00 0.00 0.00 0.00 0.00 0.00 0.00 0.00 0.00 0.00 0.00 0.00 0.00 0.00 0.00 0.00 0.01 0.01 0.01 0.01 0.01 0.01 0.02 0.02 0.02 0.01
0.00 0.00 0.00 0.00 0.00 0.00 0.00 0.00 0.00 0.00 0.01 0.01 0.01 0.01 0.00 0.00 0.00 0.00 0.00 0.00 0.00 0.00 0.00 0.00 0.00 0.00 0.00 0.00 0.00 0.00 0.00 0.00 0.00 0.01 0.01 0.01 0.01 0.02 0.02 0.02 0.02 0.02 0.02
0.00 0.00 0.00 0.00 0.00 0.00 0.00 0.01 0.01 0.00 0.00 0.01 0.01 0.01 0.00 0.00 0.00 0.00 0.00 0.00 0.00 0.00 0.00 0.00 0.00 0.00 0.00 0.00 0.00 0.00 0.00 0.00 0.00 0.00 0.01 0.01 0.01 0.01 0.01 0.02 0.02 0.03 0.03
0.00 0.00 0.00 0.00 0.00 0.00 0.00 0.01 0.01 0.00 0.00 0.00 0.01 0.01 0.00 0.00 0.00 0.00 0.00 0.00 0.00 0.00 0.00 0.00 0.00 0.00 0.00 0.00 0.01 0.01 0.01 0.01 0.01 0.00 0.01 0.01 0.01 0.01 0.01 0.01 0.01 0.02 0.03
0.00 0.00 0.00 0.00 0.00 0.00 0.00 0.00 0.00 0.00 0.00 0.00 0.01 0.01 0.01 0.00 0.00 0.00 0.00 0.00 0.00 0.00 0.00 0.00 0.00 0.00 0.00 0.01 0.01 0.01 0.01 0.01 0.01 0.01 0.01 0.01 0.01 0.01 0.01 0.01 0.01 0.01 0.01
0.00 0.00 0.00 0.00 0.00 0.00 0.00 0.00 0.01 0.01 0.00 0.00 0.01 0.01 0.01 0.01 0.01 0.00 0.00 0.00 0.00 0.00 0.00 0.00 0.00 0.01 0.01 0.01 0.01 0.01 0.01 0.01 0.01 0.01 0.01 0.01 0.01 0.01 0.01 0.01 0.02 0.02 0.02
0.00 0.00 0.00 0.00 0.00 0.00 0.00 0.01 0.01 0.01 0.00 0.01 0.01 0.01 0.01 0.01 0.01 0.00 0.00 0.00 0.00 0.00 0.00 0.00 0.00 0.00 0.00 0.00 0.01 0.01 0.00 0.00 0.01 0.01 0.02 0.02 0.02 0.01 0.01 0.02 0.02 0.02 0.03
0.00 0.00 0.00 0.00 0.00 0.00 0.00 0.01 0.01 0.01 0.01 0.01 0.01 0.01 0.01 0.01 0.01 0.00 0.00 0.00 0.00 0.01 0.01 0.01 0.01 0.00 0.00 0.00 0.00 0.00 0.01 0.01 0.01 0.01 0.02 0.02 0.02 0.02 0.02 0.02 0.02 0.03 0.03
0.00 0.00 0.00 0.00 0.00 0.00 0.00 0.01 0.01 0.01 0.01 0.01 0.02 0.01 0.01 0.00 0.00 0.01 0.01 0.01 0.01 0.01 0.01 0.01 0.01 0.01 0.01 0.01 0.00 0.00 0.00 0.01 0.01 0.01 0.01 0.02 0.02 0.02 0.02 0.02 0.02 0.02 0.02
0.00 0.00 0.00 0.00 0.00 0.00 0.00 0.00 0.00 0.00 0.01 0.01 0.02 0.02 0.01 0.00 0.01 0.01 0.01 0.01 0.01 0.01 0.01 0.01 0.01 0.00 0.00 0.00 0.01 0.01 0.01 0.01 0.01 0.01 0.02 0.01 0.01 0.02 0.02 0.02 0.02 0.02 0.02
0.00 0.00 0.00 0.00 0.00 0.00 0.00 0.01 0.01 0.01 0.01 0.01 0.02 0.02 0.02 0.01 0.01 0.01 0.01 0.01 0.01 0.01 0.01 0.01 0.01 0.01 0.00 0.01 0.01 0.01 0.01 0.01 0.01 0.01 0.01 0.01 0.02 0.02 0.02 0.01 0.01 0.02 0.02
0.00 0.00 0.00 0.00 0.00 0.00 0.00 0.00 0.01 0.01 0.01 0.01 0.01 0.02 0.01 0.01 0.01 0.01 0.01 0.01 0.00 0.01 0.01 0.01 0.01 0.01 0.01 0.01 0.01 0.01 0.01 0.01 0.01 0.01 0.01 0.01 0.01 0.02 0.02 0.01 0.01 0.01 0.02
0.01 0.01 0.01 0.01 0.00 0.00 0.00 0.01 0.01 0.01 0.02 0.02 0.01 0.01 0.01 0.01 0.01 0.01 0.01 0.01 0.01 0.01 0.01 0.01 0.01 0.01 0.01 0.01 0.01 0.01 0.01 0.01 0.01 0.01 0.01 0.01 0.01 0.02 0.02 0.02 0.01 0.02 0.01
0.01 0.01 0.01 0.01 0.01 0.01 0.01 0.01 0.01 0.01 0.01 0.01 0.01 0.01 0.01 0.01 0.01 0.01 0.01 0.01 0.01 0.01 0.01 0.01 0.01 0.01 0.01 0.02 0.02 0.01 0.01 0.01 0.01 0.01 0.01 0.01 0.01 0.01 0.01 0.02 0.02 0.02 0.02
0.01 0.01 0.01 0.01 0.01 0.01 0.01 0.01 0.01 0.01 0.00 0.01 0.01 0.01 0.01 0.01 0.01 0.01 0.01 0.01 0.01 0.01 0.01 0.01 0.01 0.01 0.01 0.01 0.02 0.02 0.01 0.01 0.01 0.01 0.01 0.01 0.01 0.01 0.01 0.02 0.02 0.02 0.02
0.01 0.01 0.01 0.01 0.01 0.01 0.01 0.01 0.01 0.00 0.01 0.01 0.01 0.00 0.00 0.00 0.00 0.01 0.01 0.01 0.01 0.01 0.01 0.01 0.01 0.01 0.01 0.01 0.01 0.02 0.02 0.01 0.01 0.01 0.01 0.01 0.01 0.01 0.02 0.02 0.01 0.02 0.01
0.01 0.01 0.01 0.01 0.01 0.01 0.01 0.01 0.01 0.01 0.01 0.01 0.01 0.00 0.01 0.01 0.01 0.01 0.01 0.01 0.01 0.01 0.01 0.01 0.01 0.01 0.01 0.01 0.01 0.01 0.01 0.01 0.01 0.01 0.02 0.02 0.02 0.01 0.02 0.02 0.01 0.01 0.01
0.01 0.01 0.01 0.01 0.01 0.01 0.01 0.01 0.01 0.01 0.01 0.01 0.01 0.01 0.00 0.01 0.01 0.01 0.01 0.01 0.01 0.01 0.01 0.01 0.01 0.01 0.01 0.01 0.01 0.01 0.01 0.01 0.01 0.02 0.02 0.02 0.02 0.02 0.02 0.02 0.02 0.01 0.02
0.01 0.01 0.01 0.01 0.01 0.01 0.01 0.01 0.01 0.01 0.01 0.01 0.01 0.01 0.01 0.01 0.01 0.01 0.01 0.01 0.01 0.01 0.01 0.01 0.01 0.01 0.01 0.01 0.01 0.01 0.01 0.01 0.01 0.01 0.02 0.03 0.02 0.02 0.02 0.02 0.02 0.02 0.02
MSLP
1015.05 1015.58 1016.15 1016.73 1017.28 1017.78 1018.23 1018.61 1018.94 1019.22 1019.49 1019.74 1020.00 1020.26 1020.51 1020.76 1020.99 1021.21 1021.40 1021.58 1021.75 1021.92 1022.11 1022.30 1022.50 1022.69 1022.86 1022.99 1023.06 1023.06 1022.99 1022.84 1022.62 1022.34 1022.02 1021.68 1021.32 1020.96 1020.59 1020.22 1019.86 1019.49 1019.12
1015.15 1015.65 1016.20 1016.76 1017.31 1017.81 1018.26 1018.65 1018.99 1019.28 1019.54 1019.79 1020.03 1020.27 1020.50 1020.73 1020.94 1021.13 1021.29 1021.44 1021.56 1021.69 1021.82 1021.95 1022.10 1022.25 1022.40 1022.52 1022.62 1022.66 1022.65 1022.56 1022.41 1022.20 1021.93 1021.61 1021.25 1020.86 1020.45 1020.02 1019.58 1019.15 1018.72
1015.33 1015.81 1016.34 1016.88 1017.41 1017.90 1018.35 1018.74 1019.07 1019.36 1019.62 1019.87 1020.10 1020.32 1020.54 1020.75 1020.94 1021.10 1021.24 1021.35 1021.43 1021.51 1021.58 1021.66 1021.74 1021.85 1021.95 1022.06 1022.15 1022.22 1022.24 1022.21 1022.11 1021.95 1021.71 1021.42 1021.06 1020.66 1020.21 1019.74 1019.26 1018.77 1018.30
1015.57 1016.03 1016.52 1017.03 1017.54 1018.01 1018.45 1018.83 1019.17 1019.46 1019.72 1019.96 1020.18 1020.39 1020.60 1020.79 1020.97 1021.11 1021.22 1021.30 1021.35 1021.38 1021.40 1021.42 1021.45 1021.49 1021.55 1021.62 1021.68 1021.74 1021.77 1021.75 1021.68 1021.55 1021.34 1021.06 1020.72 1020.31 1019.86 1019.38 1018.87 1018.36 1017.87
1015.82 1016.25 1016.71 1017.19 1017.66 1018.11 1018.53 1018.90 1019.24 1019.53 1019.79 1020.03 1020.24 1020.45 1020.65 1020.82 1020.98 1021.11 1021.20 1021.26 1021.28 1021.28 1021.25 1021.22 1021.19 1021.17 1021.17 1021.18 1021.20 1021.22 1021.22 1021.20 1021.13 1021.00 1020.80 1020.54 1020.21 1019.82 1019.38 1018.91 1018.41 1017.91 1017.42
1016.03 1016.43 1016.86 1017.30 1017.74 1018.16 1018.56 1018.93 1019.26 1019.56 1019.82 1020.05 1020.27 1020.47 1020.65 1020.81 1020.95 1021.06 1021.14 1021.18 1021.18 1021.15 1021.09 1021.01 1020.93 1020.84 1020.78 1020.72 1020.68 1020.64 1020.59 1020.53 1020.43 1020.30 1020.10 1019.85 1019.54 1019.18 1018.78 1018.34 1017.89 1017.41 1016.94
1016.15 1016.53 1016.92 1017.33 1017.74 1018.14 1018.53 1018.90 1019.23 1019.53 1019.80 1020.03 1020.24 1020.42 1020.59 1020.73 1020.85 1020.94 1020.99 1021.02 1021.00 1020.94 1020.85 1020.74 1020.61 1020.48 1020.34 1020.22 1020.10 1020.00 1019.89 1019.77 1019.64 1019.48 1019.28 1019.04 1018.76 1018.44 1018.09 1017.70 1017.30 1016.87 1016.42
1016.15 1016.51 1016.88 1017.26 1017.66 1018.05 1018.44 1018.80 1019.15 1019.45 1019.72 1019.95 1020.15 1020.31 1020.45 1020.56 1020.64 1020.70 1020.73 1020.73 1020.69 1020.62 1020.51 1020.37 1020.21 1020.03 1019.84 1019.66 1019.48 1019.30 1019.13 1018.97 1018.79 1018.61 1018.40 1018.18 1017.93 1017.65 1017.35 1017.02 1016.66 1016.28 1015.87
1016.01 1016.36 1016.73 1017.10 1017.49 1017.89 1018.28 1018.66 1019.02 1019.34 1019.61 1019.83 1020.01 1020.14 1020.24 1020.30 1020.34 1020.36 1020.35 1020.32 1020.26 1020.17 1020.05 1019.89 1019.71 1019.50 1019.28 1019.05 1018.82 1018.59 1018.37 1018.15 1017.95 1017.74 1017.54 1017.32 1017.10 1016.86 1016.61 1016.33 1016.01 1015.66 1015.26
1015.75 1016.11 1016.48 1016.86 1017.27 1017.68 1018.10 1018.50 1018.87 1019.19 1019.46 1019.67 1019.82 1019.91 1019.96 1019.97 1019.96 1019.93 1019.88 1019.81 1019.73 1019.62 1019.48 1019.32 1019.13 1018.91 1018.66 1018.41 1018.15 1017.88 1017.63 1017.39 1017.16 1016.95 1016.74 1016.54 1016.34 1016.13 1015.90 1015.65 1015.36 1015.01 1014.61
1015.41 1015.78 1016.18 1016.59 1017.02 1017.46 1017.91 1018.33 1018.71 1019.04 1019.30 1019.49 1019.60 1019.65 1019.64 1019.59 1019.52 1019.43 1019.34 1019.23 1019.12 1019.00 1018.86 1018.69 1018.50 1018.28 1018.03 1017.77 1017.49 1017.22 1016.95 1016.70 1016.46 1016.25 1016.05 1015.86 1015.67 1015.47 1015.26 1015.00 1014.70 1014.34 1013.91
1015.02 1015.43 1015.86 1016.31 1016.78 1017.26 1017.73 1018.17 1018.57 1018.89 1019.14 1019.29 1019.36 1019.35 1019.29 1019.18 1019.05 1018.90 1018.76 1018.62 1018.49 1018.35 1018.20 1018.04 1017.85 1017.64 1017.40 1017.14 1016.88 1016.60 1016.34 1016.09 1015.86 1015.65 1015.45 1015.27 1015.08 1014.88 1014.65 1014.38 1014.05 1013.65 1013.17
1014.64 1015.10 1015.58 1016.07 1016.58 1017.09 1017.59 1018.04 1018.43 1018.74 1018.95 1019.07 1019.09 1019.03 1018.91 1018.74 1018.56 1018.37 1018.18 1018.01 1017.86 1017.71 1017.56 1017.39 1017.21 1017.01 1016.78 1016.54 1016.28 1016.02 1015.77 1015.53 1015.31 1015.11 1014.92 1014.73 1014.54 1014.32 1014.07 1013.75 1013.38 1012.92 1012.38
1014.32 1014.83 1015.36 1015.89 1016.43 1016.97 1017.47 1017.91 1018.28 1018.56 1018.74 1018.81 1018.78 1018.67 1018.49 1018.28 1018.05 1017.82 1017.60 1017.41 1017.24 1017.08 1016.92 1016.76 1016.58 1016.39 1016.17 1015.94 1015.69 1015.45 1015.21 1014.98 1014.77 1014.58 1014.39 1014.20 1013.99 1013.75 1013.46 1013.10 1012.67 1012.17 1011.58
1014.09 1014.64 1015.20 1015.77 1016.33 1016.86 1017.35 1017.78 1018.11 1018.35 1018.47 1018.49 1018.41 1018.25 1018.03 1017.78 1017.51 1017.26 1017.02 1016.81 1016.63 1016.46 1016.30 1016.13 1015.95 1015.76 1015.54 1015.31 1015.07 1014.84 1014.60 1014.39 1014.18 1013.99 1013.81 1013.61 1013.39 1013.12 1012.80 1012.41 1011.94 1011.39 1010.77
1013.94 1014.52 1015.10 1015.69 1016.24 1016.76 1017.22 1017.60 1017.89 1018.07 1018.14 1018.10 1017.97 1017.76 1017.51 1017.23 1016.94 1016.68 1016.43 1016.22 1016.02 1015.85 1015.67 1015.50 1015.31 1015.10 1014.88 1014.64 1014.40 1014.16 1013.93 1013.71 1013.51 1013.32 1013.13 1012.93 1012.69 1012.41 1012.07 1011.66 1011.17 1010.60 1009.97
1013.85 1014.45 1015.04 1015.61 1016.15 1016.63 1017.05 1017.37 1017.60 1017.71 1017.72 1017.63 1017.45 1017.21 1016.93 1016.64 1016.35 1016.08 1015.83 1015.61 1015.41 1015.22 1015.04 1014.85 1014.64 1014.41 1014.17 1013.91 1013.65 1013.40 1013.16 1012.94 1012.74 1012.54 1012.35 1012.14 1011.91 1011.62 1011.28 1010.86 1010.38 1009.82 1009.22
1013.80 1014.38 1014.96 1015.51 1016.01 1016.45 1016.81 1017.07 1017.23 1017.29 1017.24 1017.10 1016.89 1016.62 1016.33 1016.03 1015.74 1015.47 1015.22 1015.00 1014.80 1014.60 1014.40 1014.18 1013.95 1013.70 1013.42 1013.14 1012.86 1012.59 1012.33 1012.10 1011.88 1011.69 1011.49 1011.29 1011.06 1010.78 1010.45 1010.05 1009.60 1009.08 1008.53
1013.74 1014.30 1014.85 1015.36 1015.82 1016.21 1016.51 1016.72 1016.82 1016.82 1016.73 1016.55 1016.31 1016.03 1015.73 1015.43 1015.14 1014.88 1014.64 1014.42 1014.21 1014.00 1013.77 1013.53 1013.26 1012.97 1012.67 1012.35 1012.04 1011.74 1011.46 1011.22 1010.99 1010.79 1010.59 1010.39 1010.17 1009.92 1009.62 1009.26 1008.85 1008.40 1007.92
1013.65 1014.18 1014.69 1015.16 1015.58 1015.92 1016.17 1016.33 1016.39 1016.35 1016.22 1016.02 1015.77 1015.48 1015.18 1014.89 1014.61 1014.35 1014.11 1013.88 1013.66 1013.43 1013.18 1012.90 1012.60 1012.28 1011.93 1011.58 1011.24 1010.91 1010.61 1010.34 1010.11 1009.90 1009.70 1009.51 1009.31 1009.08 1008.82 1008.51 1008.17 1007.79 1007.39
1013.54 1014.03 1014.50 1014.93 1015.30 1015.61 1015.83 1015.95 1015.98 1015.91 1015.77 1015.56 1015.30 1015.02 1014.72 1014.44 1014.17 1013.91 1013.66 1013.43 1013.18 1012.92 1012.64 1012.33 1011.99 1011.63 1011.25 1010.86 1010.48 1010.13 1009.81 1009.52 1009.28 1009.06 1008.87 1008.69 1008.50 1008.31 1008.08 1007.83 1007.56 1007.26 1006.95
1013.40 1013.86 1014.29 1014.69 1015.03 1015.31 1015.50 1015.61 1015.62 1015.54 1015.40 1015.19 1014.94 1014.66 1014.38 1014.10 1013.83 1013.57 1013.32 1013.06 1012.79 1012.50 1012.18 1011.83 1011.45 1011.05 1010.63 1010.21 1009.81 1009.43 1009.09 1008.78 1008.53 1008.31 1008.12 1007.95 1007.79 1007.62 1007.44 1007.24 1007.03 1006.81 1006.58
1013.28 1013.69 1014.09 1014.46 1014.78 1015.04 1015.22 1015.32 1015.33 1015.26 1015.12 1014.92 1014.68 1014.42 1014.15 1013.87 1013.60 1013.33 1013.06 1012.78 1012.48 1012.15 1011.79 1011.40 1010.98 1010.54 1010.08 1009.64 1009.21 1008.81 1008.45 1008.14 1007.88 1007.66 1007.48 1007.32 1007.18 1007.04 1006.90 1006.75 1006.59 1006.43 1006.28
1013.18 1013.56 1013.93 1014.28 1014.58 1014.82 1014.98 1015.07 1015.09 1015.02 1014.90 1014.72 1014.50 1014.25 1013.99 1013.72 1013.45 1013.16 1012.87 1012.56 1012.22 1011.85 1011.45 1011.02 1010.56 1010.08 1009.60 1009.13 1008.69 1008.27 1007.91 1007.59 1007.33 1007.11 1006.94 1006.80 1006.68 1006.57 1006.46 1006.35 1006.24 1006.13 1006.03
1013.12 1013.46 1013.80 1014.12 1014.39 1014.61 1014.76 1014.85 1014.86 1014.81 1014.70 1014.54 1014.33 1014.10 1013.86 1013.59 1013.31 1013.02 1012.70 1012.36 1011.99 1011.58 1011.15 1010.68 1010.18 1009.68 1009.18 1008.69 1008.23 1007.81 1007.45 1007.13 1006.88 1006.67 1006.51 1006.38 1006.29 1006.20 1006.13 1006.05 1005.98 1005.91 1005.85
1013.08 1013.39 1013.69 1013.96 1014.20 1014.39 1014.52 1014.60 1014.61 1014.56 1014.46 1014.32 1014.14 1013.93 1013.69 1013.43 1013.15 1012.85 1012.52 1012.16 1011.76 1011.32 1010.85 1010.35 1009.83 1009.31 1008.79 1008.30 1007.83 1007.42 1007.06 1006.76 1006.51 1006.32 1006.18 1006.07 1006.00 1005.94 1005.89 1005.84 1005.80 1005.75 1005.71
Thickness
5550 5549 5548 5546 5544 5543 5541 5539 5537 5535 5533 5531 5529 5526 5524 5522 5519 5517 5514 5511 5508 5505 5502 5499 5497 5494 5491 5489 5486 5483 5480 5476 5476 5477 5475 5473 5470 5468 5467 5464 5462 5460 5458
5544 5542 5540 5538 5536 5534 5532 5530 5528 5526 5524 5522 5518 5516 5514 5511 5509 5506 5503 5501 5498 5494 5491 5488 5485 5482 5480 5477 5473 5470 5467 5464 5462 5463 5462 5459 5456 5454 5452 5450 5448 5446 5443
5537 5535 5532 5530 5528 5525 5523 5521 5519 5517 5514 5512 5508 5506 5504 5501 5498 5496 5493 5490 5487 5484 5480 5477 5474 5470 5467 5464 5461 5458 5454 5451 5448 5447 5448 5445 5442 5439 5436 5434 5432 5430 5428
5528 5526 5524 5522 5519 5517 5515 5512 5510 5507 5504 5502 5499 5496 5493 5491 5488 5485 5482 5479 5475 5472 5469 5466 5463 5459 5456 5453 5450 5446 5442 5438 5434 5431 5431 5430 5427 5423 5418 5416 5416 5414 5412
5519 5517 5515 5513 5510 5508 5505 5502 5500 5497 5495 5492 5488 5485 5483 5480 5478 5474 5471 5468 5464 5461 5457 5454 5451 5448 5446 5442 5439 5435 5430 5425 5420 5417 5416 5414 5412 5407 5402 5399 5397 5397 5396
5511 5509 5506 5503 5501 5498 5495 5492 5489 5486 5484 5480 5477 5475 5472 5470 5467 5465 5461 5457 5453 5449 5446 5443 5439 5436 5434 5432 5428 5424 5419 5413 5409 5405 5402 5399 5397 5392 5387 5383 5379 5377 5379
5502 5500 5497 5495 5491 5488 5485 5482 5479 5476 5473 5470 5467 5464 5462 5459 5457 5454 5451 5446 5442 5438 5434 5431 5428 5425 5422 5418 5415 5412 5408 5403 5399 5393 5389 5386 5382 5379 5373 5369 5365 5361 5361
5492 5490 5487 5485 5481 5478 5474 5471 5468 5465 5462 5459 5456 5453 5450 5448 5446 5443 5440 5435 5430 5427 5423 5419 5416 5413 5409 5406 5403 5400 5396 5391 5386 5382 5378 5374 5370 5365 5360 5355 5351 5348 5347
5483 5481 5478 5475 5471 5467 5464 5461 5458 5454 5451 5448 5446 5443 5440 5437 5435 5432 5429 5423 5419 5416 5412 5408 5404 5401 5398 5395 5391 5387 5384 5380 5376 5371 5367 5363 5358 5353 5347 5342 5337 5333 5334
5474 5472 5468 5465 5461 5457 5454 5451 5447 5444 5441 5438 5435 5432 5429 5426 5424 5421 5418 5413 5409 5405 5402 5398 5394 5390 5387 5383 5378 5374 5372 5369 5365 5361 5356 5351 5346 5340 5334 5328 5323 5319 5317
5464 5461 5458 5455 5451 5448 5444 5440 5436 5433 5430 5427 5424 5421 5418 5415 5413 5410 5407 5402 5398 5395 5391 5387 5383 5380 5377 5373 5368 5363 5360 5357 5353 5348 5343 5338 5333 5328 5322 5317 5311 5306 5304
5454 5451 5448 5444 5441 5438 5433 5429 5425 5422 5418 5415 5412 5410 5407 5404 5402 5399 5396 5393 5389 5384 5381 5377 5373 5370 5366 5362 5357 5353 5348 5344 5339 5335 5330 5326 5321 5317 5312 5308 5303 5299 5295
5442 5439 5436 5433 5429 5426 5422 5418 5414 5410 5407 5404 5401 5399 5397 5394 5390 5388 5385 5382 5378 5374 5370 5367 5363 5359 5355 5350 5345 5341 5336 5331 5326 5322 5319 5315 5311 5307 5303 5299 5295 5291 5288
5430 5427 5424 5420 5417 5414 5411 5408 5404 5400 5396 5394 5391 5388 5386 5383 5379 5376 5373 5370 5367 5363 5359 5356 5352 5348 5343 5338 5334 5328 5323 5318 5314 5312 5309 5305 5301 5297 5293 5289 5286 5282 5279
5417 5414 5411 5408 5405 5402 5399 5396 5393 5391 5388 5385 5382 5378 5375 5373 5371 5368 5363 5360 5356 5352 5348 5344 5339 5334 5329 5325 5321 5317 5312 5308 5305 5302 5298 5295 5292 5288 5285 5281 5277 5273 5270
5403 5400 5398 5395 5392 5389 5386 5384 5382 5380 5379 5376 5373 5369 5366 5364 5362 5358 5354 5350 5346 5341 5336 5331 5327 5322 5318 5314 5311 5307 5303 5299 5296 5293 5290 5286 5283 5280 5277 5274 5269 5265 5262
5390 5388 5385 5382 5379 5376 5373 5370 5369 5368 5366 5364 5361 5358 5356 5353 5350 5347 5343 5339 5335 5330 5324 5320 5315 5311 5307 5303 5300 5296 5293 5290 5287 5284 5281 5278 5274 5271 5268 5265 5261 5258 5255
5378 5376 5373 5370 5367 5364 5361 5359 5356 5354 5352 5350 5348 5346 5344 5341 5338 5335 5330 5326 5322 5317 5312 5309 5305 5301 5297 5294 5290 5287 5284 5282 5278 5276 5273 5269 5266 5263 5260 5257 5254 5251 5248
5365 5363 5361 5358 5355 5353 5350 5347 5344 5342 5340 5338 5336 5333 5331 5329 5326 5322 5318 5313 5310 5306 5302 5298 5295 5291 5288 5285 5282 5279 5276 5273 5271 5268 5265 5262 5259 5256 5253 5251 5247 5245 5242
5353 5352 5349 5346 5343 5341 5338 5336 5333 5331 5328 5326 5324 5322 5319 5316 5313 5310 5306 5302 5298 5296 5293 5289 5286 5282 5279 5276 5273 5271 5268 5266 5263 5261 5258 5255 5252 5250 5247 5245 5242 5240 5238
5341 5339 5338 5335 5332 5330 5327 5325 5322 5320 5317 5316 5314 5311 5309 5306 5303 5300 5296 5292 5289 5286 5283 5280 5277 5274 5271 5269 5266 5264 5261 5259 5256 5254 5252 5249 5247 5244 5242 5240 5238 5236 5234
5329 5327 5325 5323 5321 5319 5316 5314 5311 5309 5307 5305 5304 5301 5299 5295 5292 5289 5286 5284 5281 5278 5274 5271 5269 5267 5264 5262 5260 5257 5255 5253 5250 5248 5246 5244 5242 5240 5238 5236 5234 5233 5231
5317 5315 5314 5312 5310 5309 5307 5304 5301 5299 5297 5295 5293 5291 5288 5285 5282 5279 5277 5275 5272 5269 5266 5264 5262 5260 5258 5256 5254 5252 5250 5248 5246 5244 5241 5239 5237 5236 5234 5232 5231 5230 5229
5306 5304 5303 5301 5299 5298 5296 5294 5291 5289 5287 5285 5282 5280 5278 5275 5273 5270 5268 5265 5263 5261 5258 5256 5255 5253 5252 5250 5249 5247 5246 5244 5242 5240 5238 5236 5234 5232 5231 5230 5229 5228 5226
5296 5294 5293 5291 5289 5288 5286 5284 5281 5279 5277 5275 5273 5271 5268 5266 5263 5261 5259 5257 5255 5253 5251 5250 5249 5248 5247 5246 5244 5243 5242 5240 5238 5236 5235 5233 5231 5230 5229 5228 5227 5226 5225
5286 5284 5282 5280 5278 5277 5275 5273 5271 5269 5267 5265 5263 5261 5259 5257 5255 5253 5251 5250 5248 5247 5246 5245 5244 5243 5242 5241 5241 5239 5238 5237 5235 5234 5232 5231 5229 5228 5227 5226 5225 5225 5224